Location: Unspecified
(49.2170°N, 0.0000°E)
Time: 17:14:31
(UTC+00:00)

A-11 Canister half - Pass Details

Date: 30 January 2021
Orbit: 1516 x 1684 km, 47.2° (Epoch: 05 March)

Event Time Altitude Azimuth Distance (km) Brightness Sun altitude
Rises 20:45:29 0° 258° (WSW) 4,755 12.3 -37.6°
Reaches altitude 10° 20:48:35 10° 257° (WSW) 3,751 11.6 -38.1°
Enters shadow 20:56:27 65° 237° (WSW) 1,664 9.1 -39.3°
